Weather in Puerto Juárez

Mexico     21°11′22″N   86°48′23″W
temp.,
°C
wind,
m/s
gust,
m/s
humid.,
%
clouds,
%
prec.,
mm/h
press.,
hPa
HPBL,
m
24 june, thu
thu2401:00+27ese47853 0.5 1017603
04:00+27e46853 0.2 1015523
07:00+27ene35825 0.2 1016514
10:00+29ene34715 0.0 1017834
13:00+29e446915 0.0 1016941
16:00+29ene45695 0.0 1014846
19:00+28ne56776 0.0 1014766
22:00+28ene68785 0.3 1015824
25 june, fri
fri2501:00+27ene46755 0.3 1014452
04:00+26ene45734 0.0 1013506
07:00+27ene457932 0.8 1013476
10:00+28e457853 2.9 1014756
13:00+29ene336797 5.7 1013736
16:00+29ene446795 1.4 1012876
19:00+28e567493 1.4 1012622
22:00+27ese687884 0.4 1013634
26 june, sat
sat2601:00+26se588388 1.6 1012689
04:00+26sse5884100 0.9 1011643
07:00+27sse4783100 1.3 1012591
10:00+28sse4580100 0.8 1013768
13:00+28se5681100 2.6 1013776
16:00+27se4680100 3.1 1012579
19:00+27ese57836 4.2 1011590
22:00+27se47845 0.5 1013559
27 june, sun
sun2701:00+26se4684100 1.3 1012591
04:00+26se468349 0.1 1011578
07:00+27ese3582100 0.1 1012569
10:00+27ese348191 1.8 1013539
13:00+29ese4469100 3.4 1013942
16:00+29e4469100 0.0 1013928
19:00+28ese4577100 0.0 1013656
22:00+27e4681100 0.0 1013615
28 june, mon
mon2801:00+27ese4580100 0.0 1013574
04:00+27ese458099 0.0 1012640
07:00+27ese4580100 0.3 1013605
10:00+29ese4569100 0.0 10141016
13:00+29ese456989 0.2 10141039
16:00+29ese4570100 0.0 10131005
19:00+28ese467894 0.2 1013715
22:00+27ese5781100 0.1 1014677